Weather History for Forest City, IA

Change the Weather History Date:

Sunday, January 13, 2013

  Actual Average Record
Temperature  
Mean Temperature 8 °F -  
Max Temperature 12 °F 23 °F 35 °F (2014)
Min Temperature 3 °F 6 °F -14 °F (2015)
Degree Days  
Heating Degree Days 58    
Moisture  
Dew Point 0 °F    
Average Humidity 70    
Maximum Humidity 85    
Minimum Humidity 62    
Precipitation  
Precipitation 0.00 in - - ()
Sea Level Pressure  
Sea Level Pressure 30.11 in    
Wind  
Wind Speed 11 mph (NW)    
Max Wind Speed 17 mph    
Max Gust Speed 20 mph    
Visibility 10 miles    
Events      
Averages and records for this station are not official NWS values.
T = Trace of Precipitation, MM = Missing Value Source: NWS Daily Summary

Daily Weather History Graph

Daily Weather History Graph

Search for Another Location

Airport:

Trip Planner

Search our weather history database for the weather conditions in past years. The results will help you decide how hot, cold, wet, or windy it might be!

Date:

Astronomy

Jan. 13, 2013 Rise Set
Actual Time 7:44 AM CST 5:02 PM CST
Civil Twilight 7:12 AM CST 5:34 PM CST
Nautical Twilight 6:37 AM CST 6:09 PM CST
Astronomical Twilight 6:03 AM CST 6:43 PM CST
Moon 8:38 AM CST (1/13) 7:47 PM CST (1/13)
Length of Visible Light 10h 21m
Length of Day
9h 18m
Waxing Crescent, 5% of the Moon is Illuminated
Jan 13
Waxing Crescent
Jan 18
First Quarter
Jan 26
Full
Feb 3
Last Quarter
Feb 10
New

Hourly Weather History & Observations

Time (CST) Temp. Windchill Dew Point Humidity Pressure Visibility Wind Dir Wind Speed Gust Speed Precip Events Conditions
12:15 AM 10.4 °F -6.0 °F 1.4 °F 67% 30.02 in 10.0 mi NNW 15.0 mph - N/A   Overcast
12:35 AM 8.6 °F -9.5 °F -0.4 °F 67% 30.02 in 10.0 mi NNW 17.3 mph - N/A   Mostly Cloudy
12:55 AM 8.6 °F -6.3 °F -0.4 °F 67% 30.02 in 10.0 mi NW 11.5 mph - N/A   Clear
1:15 AM 6.8 °F -7.8 °F -0.4 °F 72% 30.01 in 10.0 mi NW 10.4 mph 18.4 mph N/A   Mostly Cloudy
1:35 AM 6.8 °F -8.6 °F -0.4 °F 72% 30.01 in 10.0 mi NW 11.5 mph - N/A   Mostly Cloudy
1:55 AM 6.8 °F -8.6 °F -0.4 °F 72% 30.03 in 10.0 mi NNW 11.5 mph 17.3 mph N/A   Mostly Cloudy
2:15 AM 5.0 °F -10.0 °F -0.4 °F 78% 30.04 in 10.0 mi NNW 10.4 mph - N/A   Scattered Clouds
2:35 AM 5.0 °F -9.1 °F -0.4 °F 78% 30.05 in 10.0 mi NNW 9.2 mph 16.1 mph N/A   Scattered Clouds
2:55 AM 5.0 °F -9.1 °F -2.2 °F 72% 30.04 in 10.0 mi NW 9.2 mph - N/A   Overcast
3:15 AM 5.0 °F -10.0 °F -0.4 °F 78% 30.03 in 10.0 mi NW 10.4 mph 16.1 mph N/A   Overcast
3:35 AM 5.0 °F -11.6 °F -0.4 °F 78% 30.02 in 10.0 mi NNW 12.7 mph - N/A   Overcast
3:55 AM 5.0 °F -12.3 °F -4.0 °F 66% 30.02 in 10.0 mi NW 13.8 mph 17.3 mph N/A   Overcast
4:15 AM 5.0 °F -10.0 °F -4.0 °F 66% 30.02 in 10.0 mi NW 10.4 mph - N/A   Overcast
4:35 AM 5.0 °F -13.0 °F -2.2 °F 72% 30.02 in 7.0 mi WNW 15.0 mph 18.4 mph N/A   Overcast
4:55 AM 5.0 °F -10.0 °F -4.0 °F 66% 30.02 in 10.0 mi NW 10.4 mph - N/A   Overcast
5:15 AM 5.0 °F -10.0 °F -2.2 °F 72% 30.04 in 10.0 mi NW 10.4 mph - N/A   Overcast
5:35 AM 5.0 °F -10.8 °F -4.0 °F 66% 30.05 in 10.0 mi WNW 11.5 mph - N/A   Overcast
5:55 AM 5.0 °F -11.6 °F -4.0 °F 66% 30.06 in 10.0 mi NW 12.7 mph - N/A   Overcast
6:15 AM 5.0 °F -10.0 °F -2.2 °F 72% 30.06 in 10.0 mi NW 10.4 mph - N/A   Overcast
6:35 AM 5.0 °F -11.6 °F -4.0 °F 66% 30.06 in 10.0 mi WNW 12.7 mph - N/A   Overcast
6:55 AM 5.0 °F -10.0 °F -4.0 °F 66% 30.07 in 10.0 mi NW 10.4 mph 16.1 mph N/A   Overcast
7:15 AM 5.0 °F -10.0 °F -4.0 °F 66% 30.08 in 7.0 mi NNW 10.4 mph - N/A   Overcast
7:35 AM 3.2 °F -12.2 °F -4.0 °F 72% 30.09 in 10.0 mi NW 10.4 mph - N/A   Mostly Cloudy
7:55 AM 3.2 °F -11.3 °F -4.0 °F 72% 30.11 in 10.0 mi NW 9.2 mph - N/A   Mostly Cloudy
8:15 AM 3.2 °F -12.2 °F -4.0 °F 72% 30.13 in 10.0 mi NW 10.4 mph - N/A   Mostly Cloudy
8:35 AM 3.2 °F -11.3 °F -4.0 °F 72% 30.12 in 10.0 mi NW 9.2 mph - N/A   Clear
8:55 AM 5.0 °F -10.0 °F -4.0 °F 66% 30.12 in 10.0 mi NW 10.4 mph - N/A   Scattered Clouds
9:15 AM 5.0 °F -10.8 °F -4.0 °F 66% 30.12 in 10.0 mi WNW 11.5 mph - N/A   Mostly Cloudy
9:35 AM 5.0 °F -13.0 °F -4.0 °F 66% 30.11 in 10.0 mi WNW 15.0 mph - N/A   Mostly Cloudy
9:55 AM 5.0 °F -12.3 °F -4.0 °F 66% 30.11 in 10.0 mi NW 13.8 mph 19.6 mph N/A   Scattered Clouds
10:15 AM 5.0 °F -13.0 °F -4.0 °F 66% 30.11 in 10.0 mi NW 15.0 mph 19.6 mph N/A   Mostly Cloudy
10:35 AM 5.0 °F -12.3 °F -2.2 °F 72% 30.10 in 7.0 mi NW 13.8 mph - N/A   Overcast
10:55 AM 5.0 °F -11.6 °F -2.2 °F 72% 30.10 in 10.0 mi NW 12.7 mph 19.6 mph N/A   Mostly Cloudy
11:15 AM 8.6 °F -7.7 °F -0.4 °F 67% 30.09 in 10.0 mi NW 13.8 mph 19.6 mph N/A   Overcast
11:35 AM 6.8 °F -10.7 °F -2.2 °F 67% 30.09 in 10.0 mi WNW 15.0 mph 19.6 mph N/A   Overcast
11:55 AM 8.6 °F -7.7 °F -0.4 °F 67% 30.09 in 10.0 mi WNW 13.8 mph - N/A   Overcast
12:15 PM 8.6 °F -7.7 °F -0.4 °F 67% 30.09 in 10.0 mi WNW 13.8 mph - N/A   Overcast
12:55 PM 8.6 °F -6.3 °F -0.4 °F 67% 30.09 in 10.0 mi WNW 11.5 mph - N/A   Overcast
1:15 PM 10.4 °F -6.0 °F -0.4 °F 62% 30.09 in 10.0 mi WNW 15.0 mph - N/A   Mostly Cloudy
1:35 PM 10.4 °F -4.1 °F 1.4 °F 67% 30.08 in 10.0 mi WNW 11.5 mph 16.1 mph N/A   Overcast
1:55 PM 10.4 °F -5.4 °F 1.4 °F 67% 30.09 in 10.0 mi WNW 13.8 mph 18.4 mph N/A   Overcast
2:15 PM 10.4 °F -5.4 °F 1.4 °F 67% 30.09 in 10.0 mi WNW 13.8 mph - N/A   Overcast
2:35 PM 12.2 °F -2.5 °F 1.4 °F 62% 30.10 in 10.0 mi WNW 12.7 mph 17.3 mph N/A   Overcast
2:55 PM 12.2 °F -4.3 °F 3.2 °F 67% 30.11 in 10.0 mi WNW 16.1 mph - N/A   Overcast
3:15 PM 12.2 °F -2.5 °F 3.2 °F 67% 30.12 in 10.0 mi WNW 12.7 mph 17.3 mph N/A   Overcast
3:35 PM 12.2 °F -3.7 °F 3.2 °F 67% 30.13 in 10.0 mi WNW 15.0 mph - N/A   Overcast
3:55 PM 12.2 °F -1.8 °F 3.2 °F 67% 30.13 in 10.0 mi NW 11.5 mph - N/A   Overcast
4:15 PM 12.2 °F -1.0 °F 3.2 °F 67% 30.13 in 10.0 mi NW 10.4 mph 17.3 mph N/A   Mostly Cloudy
4:35 PM 12.2 °F -3.7 °F 3.2 °F 67% 30.14 in 10.0 mi WNW 15.0 mph - N/A   Scattered Clouds
4:55 PM 12.2 °F -1.0 °F 3.2 °F 67% 30.14 in 10.0 mi WNW 10.4 mph - N/A   Clear
5:15 PM 12.2 °F -1.0 °F 3.2 °F 67% 30.15 in 10.0 mi WNW 10.4 mph - N/A   Clear
5:35 PM 12.2 °F -0.2 °F 3.2 °F 67% 30.15 in 10.0 mi WNW 9.2 mph - N/A   Clear
5:55 PM 12.2 °F -1.0 °F 3.2 °F 67% 30.16 in 10.0 mi WNW 10.4 mph - N/A   Clear
6:15 PM 10.4 °F -3.3 °F 3.2 °F 73% 30.17 in 10.0 mi WNW 10.4 mph - N/A   Clear
6:35 PM 10.4 °F -1.5 °F 1.4 °F 67% 30.18 in 10.0 mi WNW 8.1 mph - N/A   Clear
6:55 PM 10.4 °F -0.4 °F 1.4 °F 67% 30.18 in 10.0 mi WNW 6.9 mph - N/A   Clear
7:15 PM 10.4 °F 0.8 °F 1.4 °F 67% 30.19 in 10.0 mi WNW 5.8 mph - N/A   Clear
7:35 PM 10.4 °F 4.0 °F 1.4 °F 67% 30.19 in 10.0 mi WNW 3.5 mph - N/A   Clear
7:55 PM 8.6 °F - 1.4 °F 73% 30.20 in 10.0 mi Calm Calm - N/A   Clear
8:15 PM 8.6 °F - 1.4 °F 73% 30.20 in 10.0 mi Calm Calm - N/A   Clear
8:35 PM 8.6 °F 2.0 °F 1.4 °F 73% 30.21 in 10.0 mi WNW 3.5 mph - N/A   Clear
8:55 PM 6.8 °F -0.1 °F 1.4 °F 79% 30.21 in 10.0 mi WNW 3.5 mph - N/A   Clear
9:15 PM 6.8 °F -0.1 °F 1.4 °F 79% 30.21 in 10.0 mi West 3.5 mph - N/A   Clear
9:35 PM 6.8 °F - 1.4 °F 79% 30.22 in 10.0 mi Calm Calm - N/A   Clear
9:55 PM 6.8 °F -3.5 °F 1.4 °F 79% 30.23 in 10.0 mi West 5.8 mph - N/A   Clear
10:35 PM 6.8 °F -4.8 °F 1.4 °F 79% 30.23 in 10.0 mi West 6.9 mph - N/A   Clear
10:55 PM 6.8 °F -4.8 °F 1.4 °F 79% 30.24 in 10.0 mi West 6.9 mph - N/A   Clear
11:35 PM 5.0 °F -5.6 °F 1.4 °F 85% 30.24 in 10.0 mi West 5.8 mph - N/A   Clear
11:55 PM 6.8 °F - 1.4 °F 79% 30.25 in 10.0 mi Calm Calm - N/A   Clear